SWA3009 KBNA-KLGA

Flight info

Callsign SWA3009
Flight time 1h 56m
Altitude 37000
Route KRSTA4 OLSIE IIU Q139 CREEP Q29 WWSHR TEESY Q186 WEVEL ETG MIP4
Aircraft B738/M-SADE2E3GIJ4RWZ/LB1D1

Departure

Time 2026-05-06 00:56
Airport Nashville International Airport (KBNA)

Arrival

Time 2026-05-06 02:53
Airport LaGuardia Airport (KLGA)
Time Latitude Longitude Altitude Speed Heading
2026-05-06 00:29 36.12954 -86.66791 569 ft 0 kts 39°
2026-05-06 00:42 36.12938 -86.66810 581 ft 4 kts 55°
2026-05-06 00:42 36.12928 -86.66839 568 ft 4 kts 92°
2026-05-06 00:43 36.12934 -86.66863 568 ft 1 kts 131°
2026-05-06 00:43 36.12937 -86.66867 568 ft 0 kts 131°
2026-05-06 00:47 36.12931 -86.66859 568 ft 5 kts 131°
2026-05-06 00:48 36.12865 -86.66812 569 ft 15 kts 155°
2026-05-06 00:48 36.12761 -86.66795 568 ft 15 kts 201°
2026-05-06 00:48 36.12679 -86.66874 576 ft 15 kts 221°
2026-05-06 00:48 36.12593 -86.66930 573 ft 14 kts 169°
2026-05-06 00:49 36.12545 -86.66919 571 ft 0 kts 190°
2026-05-06 00:49 36.12540 -86.66925 573 ft 6 kts 227°
2026-05-06 00:49 36.12596 -86.66992 572 ft 18 kts 335°
2026-05-06 00:50 36.12688 -86.67091 568 ft 18 kts 310°
2026-05-06 00:50 36.12766 -86.67203 570 ft 17 kts 313°
2026-05-06 00:50 36.12801 -86.67324 571 ft 16 kts 242°
2026-05-06 00:50 36.12737 -86.67432 575 ft 16 kts 266°
2026-05-06 00:51 36.12798 -86.67536 575 ft 15 kts 313°
2026-05-06 00:51 36.12876 -86.67640 570 ft 18 kts 313°
2026-05-06 00:51 36.12961 -86.67750 570 ft 18 kts 314°
2026-05-06 00:51 36.13051 -86.67867 572 ft 22 kts 313°
2026-05-06 00:52 36.13214 -86.67894 575 ft 28 kts 17°
2026-05-06 00:52 36.13398 -86.67823 577 ft 27 kts 18°
2026-05-06 00:52 36.13572 -86.67755 576 ft 25 kts 17°
2026-05-06 00:52 36.13728 -86.67734 578 ft 11 kts 323°
2026-05-06 00:53 36.13740 -86.67752 577 ft 0 kts 300°
2026-05-06 00:53 36.13741 -86.67753 577 ft 0 kts 300°
2026-05-06 00:55 36.13743 -86.67757 578 ft 4 kts 297°
2026-05-06 00:55 36.13735 -86.67869 579 ft 32 kts 218°
2026-05-06 00:55 36.13270 -86.68059 575 ft 107 kts 198°
2026-05-06 00:56 36.12357 -86.68420 644 ft 162 kts 198°
2026-05-06 00:56 36.11189 -86.68883 1131 ft 190 kts 198°
2026-05-06 00:56 36.10106 -86.69734 1946 ft 191 kts 232°
2026-05-06 00:56 36.09513 -86.71218 2586 ft 199 kts 237°
2026-05-06 00:57 36.08737 -86.72724 2859 ft 215 kts 233°
2026-05-06 00:57 36.07899 -86.74318 3254 ft 224 kts 233°
2026-05-06 00:57 36.07085 -86.75972 3814 ft 228 kts 243°
2026-05-06 00:57 36.06806 -86.77915 4473 ft 233 kts 264°
2026-05-06 00:58 36.07074 -86.79943 5017 ft 244 kts 279°
2026-05-06 00:58 36.07514 -86.81971 5611 ft 246 kts 279°
2026-05-06 00:58 36.07950 -86.84019 6211 ft 247 kts 281°
2026-05-06 00:58 36.08731 -86.85945 6753 ft 259 kts 308°
2026-05-06 00:59 36.10245 -86.87183 7240 ft 272 kts 339°
2026-05-06 00:59 36.12155 -86.87269 7835 ft 280 kts
2026-05-06 00:59 36.14061 -86.86741 8443 ft 283 kts 10°
2026-05-06 00:59 36.15985 -86.86151 8988 ft 287 kts 10°
2026-05-06 01:00 36.17929 -86.85551 9572 ft 290 kts
2026-05-06 01:00 36.19903 -86.84952 10130 ft 294 kts
2026-05-06 01:00 36.21956 -86.84343 10417 ft 316 kts
2026-05-06 01:00 36.24186 -86.83689 10604 ft 342 kts
2026-05-06 01:01 36.26548 -86.82999 10767 ft 365 kts
2026-05-06 01:01 36.29090 -86.82256 10949 ft 386 kts
2026-05-06 01:01 36.31731 -86.81400 11384 ft 399 kts 16°
2026-05-06 01:01 36.34244 -86.79876 12027 ft 407 kts 32°
2026-05-06 01:02 36.36447 -86.77645 12706 ft 412 kts 46°
2026-05-06 01:02 36.38377 -86.74987 13382 ft 417 kts 49°
2026-05-06 01:02 36.40297 -86.72245 13980 ft 424 kts 50°
2026-05-06 01:02 36.42237 -86.69477 14635 ft 428 kts 49°
2026-05-06 01:03 36.44211 -86.66688 15268 ft 432 kts 48°
2026-05-06 01:03 36.46218 -86.63878 15925 ft 437 kts 47°
2026-05-06 01:03 36.48253 -86.61042 16540 ft 442 kts 46°
2026-05-06 01:03 36.50316 -86.58175 17143 ft 447 kts 46°
2026-05-06 01:04 36.52400 -86.55277 17796 ft 452 kts 45°
2026-05-06 01:04 36.54497 -86.52342 18522 ft 456 kts 45°
2026-05-06 01:04 36.56712 -86.49509 19152 ft 457 kts 37°
2026-05-06 01:04 36.59203 -86.47083 19841 ft 453 kts 29°
2026-05-06 01:05 36.61930 -86.45186 20491 ft 446 kts 17°
2026-05-06 01:05 36.64811 -86.43802 21190 ft 443 kts 13°
2026-05-06 01:05 36.67698 -86.42441 21801 ft 445 kts 14°
2026-05-06 01:05 36.70585 -86.40994 22311 ft 450 kts 15°
2026-05-06 01:06 36.73479 -86.39450 22727 ft 458 kts 19°
2026-05-06 01:06 36.76342 -86.37660 23244 ft 461 kts 20°
2026-05-06 01:06 36.79188 -86.35803 23756 ft 463 kts 20°
2026-05-06 01:06 36.82039 -86.33919 24192 ft 464 kts 20°
2026-05-06 01:07 36.84902 -86.32032 24573 ft 467 kts 20°
2026-05-06 01:07 36.87782 -86.30143 24993 ft 468 kts 20°
2026-05-06 01:07 36.90670 -86.28258 25406 ft 470 kts 20°
2026-05-06 01:07 36.93576 -86.26369 25821 ft 471 kts 20°
2026-05-06 01:08 36.95507 -86.25114 26049 ft 473 kts 20°
2026-05-06 01:08 36.98439 -86.23212 26389 ft 476 kts 20°
2026-05-06 01:08 37.01388 -86.21295 26760 ft 478 kts 20°
2026-05-06 01:08 37.04343 -86.19372 27155 ft 479 kts 19°
2026-05-06 01:09 37.08269 -86.16813 27637 ft 481 kts 19°
2026-05-06 01:09 37.10276 -86.15504 27879 ft 483 kts 19°
2026-05-06 01:09 37.13260 -86.13554 28204 ft 484 kts 19°
2026-05-06 01:09 37.16256 -86.11596 28538 ft 486 kts 19°
2026-05-06 01:10 37.19260 -86.09633 28845 ft 489 kts 19°
2026-05-06 01:10 37.22286 -86.07653 29144 ft 491 kts 19°
2026-05-06 01:10 37.25336 -86.05743 29571 ft 488 kts 17°
2026-05-06 01:10 37.28408 -86.03974 30058 ft 483 kts 15°
2026-05-06 01:11 37.31471 -86.02283 30564 ft 478 kts 14°
2026-05-06 01:11 37.34500 -86.00630 31160 ft 472 kts 14°
2026-05-06 01:11 37.37494 -85.98987 31636 ft 469 kts 14°
2026-05-06 01:11 37.40478 -85.97338 32020 ft 468 kts 14°
2026-05-06 01:12 37.43459 -85.95680 32324 ft 470 kts 14°
2026-05-06 01:12 37.46454 -85.94007 32555 ft 472 kts 14°
2026-05-06 01:12 37.49453 -85.92322 32906 ft 471 kts 14°
2026-05-06 01:12 37.52441 -85.90635 33292 ft 470 kts 14°
2026-05-06 01:13 37.55416 -85.88951 33694 ft 468 kts 14°
2026-05-06 01:13 37.58374 -85.87275 34085 ft 465 kts 13°
2026-05-06 01:13 37.61278 -85.85630 34436 ft 463 kts 13°
2026-05-06 01:13 37.64205 -85.83972 34791 ft 460 kts 13°
2026-05-06 01:14 37.70043 -85.80667 35389 ft 459 kts 13°
2026-05-06 01:14 37.72986 -85.78997 35721 ft 457 kts 12°
2026-05-06 01:14 37.75837 -85.77378 36038 ft 455 kts 12°
2026-05-06 01:15 37.78722 -85.75740 36302 ft 454 kts 12°
2026-05-06 01:15 37.81607 -85.74100 36532 ft 455 kts 12°
2026-05-06 01:15 37.84497 -85.72457 36754 ft 455 kts 12°
2026-05-06 01:15 37.87382 -85.70813 36970 ft 456 kts 12°
2026-05-06 01:16 37.93220 -85.67488 36919 ft 460 kts 12°
2026-05-06 01:16 37.99037 -85.64155 36904 ft 457 kts 12°
2026-05-06 01:17 38.04809 -85.60848 36907 ft 454 kts 12°
2026-05-06 01:17 38.10554 -85.57545 36882 ft 454 kts 13°
2026-05-06 01:18 38.16204 -85.53851 36904 ft 459 kts 16°
2026-05-06 01:18 38.21823 -85.49957 36894 ft 461 kts 16°
2026-05-06 01:19 38.27464 -85.46071 36906 ft 462 kts 16°
2026-05-06 01:19 38.33143 -85.42195 36906 ft 464 kts 16°
2026-05-06 01:20 38.38852 -85.38304 36893 ft 466 kts 16°
2026-05-06 01:20 38.44582 -85.34391 36887 ft 468 kts 16°
2026-05-06 01:21 38.50324 -85.30458 36883 ft 469 kts 16°
2026-05-06 01:21 38.56069 -85.26517 36904 ft 469 kts 16°
2026-05-06 01:22 38.61822 -85.22566 36873 ft 469 kts 16°
2026-05-06 01:22 38.67567 -85.18609 36863 ft 469 kts 16°
2026-05-06 01:23 38.73303 -85.14654 36870 ft 468 kts 16°
2026-05-06 01:23 38.79042 -85.10687 36903 ft 468 kts 16°
2026-05-06 01:24 38.84776 -85.06716 36862 ft 469 kts 17°
2026-05-06 01:24 38.90475 -85.02756 36890 ft 469 kts 17°
2026-05-06 01:25 38.96209 -84.98767 36880 ft 469 kts 17°
2026-05-06 01:25 39.01961 -84.94760 36908 ft 472 kts 17°
2026-05-06 01:26 39.07746 -84.90705 36876 ft 474 kts 17°
2026-05-06 01:26 39.13542 -84.86663 36872 ft 473 kts 17°
2026-05-06 01:27 39.19318 -84.82623 36874 ft 472 kts 17°
2026-05-06 01:27 39.25076 -84.78566 36912 ft 472 kts 18°
2026-05-06 01:28 39.30847 -84.74505 36904 ft 473 kts 18°
2026-05-06 01:28 39.36639 -84.70422 36907 ft 474 kts 18°
2026-05-06 01:29 39.42425 -84.66332 36904 ft 474 kts 18°
2026-05-06 01:29 39.48212 -84.62235 36888 ft 475 kts 18°
2026-05-06 01:30 39.54008 -84.58124 36908 ft 475 kts 18°
2026-05-06 01:30 39.59821 -84.53994 36889 ft 477 kts 18°
2026-05-06 01:31 39.65637 -84.49851 36899 ft 477 kts 18°
2026-05-06 01:31 39.71462 -84.45694 36883 ft 478 kts 18°
2026-05-06 01:32 39.77281 -84.41533 36884 ft 477 kts 18°
2026-05-06 01:32 39.83095 -84.37368 36891 ft 477 kts 18°
2026-05-06 01:33 39.88906 -84.33199 36854 ft 477 kts 18°
2026-05-06 01:33 39.94465 -84.28208 36849 ft 499 kts 33°
2026-05-06 01:34 39.99424 -84.21868 36844 ft 502 kts 35°
2026-05-06 01:34 40.04355 -84.15452 36850 ft 500 kts 35°
2026-05-06 01:35 40.09307 -84.09104 36866 ft 497 kts 34°
2026-05-06 01:35 40.14266 -84.02798 36849 ft 498 kts 34°
2026-05-06 01:36 40.19220 -83.96493 36858 ft 497 kts 34°
2026-05-06 01:36 40.24166 -83.90178 36885 ft 497 kts 34°
2026-05-06 01:37 40.29109 -83.83849 36873 ft 497 kts 34°
2026-05-06 01:37 40.34047 -83.77513 36877 ft 498 kts 34°
2026-05-06 01:38 40.38958 -83.71197 36880 ft 498 kts 34°
2026-05-06 01:38 40.43896 -83.64832 36883 ft 498 kts 34°
2026-05-06 01:39 40.48837 -83.58452 36883 ft 498 kts 34°
2026-05-06 01:39 40.53780 -83.52052 36870 ft 499 kts 35°
2026-05-06 01:40 40.58725 -83.45632 36847 ft 500 kts 35°
2026-05-06 01:40 40.63671 -83.39197 36832 ft 500 kts 35°
2026-05-06 01:41 40.68609 -83.32759 36849 ft 500 kts 35°
2026-05-06 01:41 40.73241 -83.25794 36931 ft 509 kts 43°
2026-05-06 01:42 40.77536 -83.18324 36854 ft 512 kts 44°
2026-05-06 01:42 40.81820 -83.10845 36831 ft 510 kts 44°
2026-05-06 01:43 40.86136 -83.03444 36834 ft 508 kts 43°
2026-05-06 01:43 40.90463 -82.96068 36844 ft 507 kts 43°
2026-05-06 01:44 40.94788 -82.88680 36835 ft 509 kts 43°
2026-05-06 01:44 40.99131 -82.81248 36831 ft 510 kts 44°
2026-05-06 01:45 41.03452 -82.73801 36823 ft 510 kts 44°
2026-05-06 01:45 41.07773 -82.66343 36825 ft 510 kts 44°
2026-05-06 01:46 41.12092 -82.58880 36877 ft 510 kts 44°
2026-05-06 01:46 41.16094 -82.50995 36846 ft 522 kts 54°
2026-05-06 01:47 41.19458 -82.42437 36827 ft 524 kts 56°
2026-05-06 01:47 41.22811 -82.33861 36840 ft 523 kts 55°
2026-05-06 01:48 41.26227 -82.25339 36851 ft 522 kts 54°
2026-05-06 01:48 41.29652 -82.16832 36892 ft 521 kts 54°
2026-05-06 01:49 41.32957 -82.08234 36818 ft 528 kts 63°
2026-05-06 01:49 41.34788 -81.98700 36797 ft 539 kts 82°
2026-05-06 01:50 41.35045 -81.93723 36927 ft 537 kts 84°
2026-05-06 01:50 41.35230 -81.88766 36868 ft 538 kts 85°
2026-05-06 01:50 41.35581 -81.78811 36842 ft 538 kts 85°
2026-05-06 01:51 41.35931 -81.70233 36838 ft 538 kts 84°
2026-05-06 01:51 41.36371 -81.60408 36805 ft 537 kts 84°
2026-05-06 01:52 41.36725 -81.50486 36794 ft 538 kts 89°
2026-05-06 01:52 41.36456 -81.40550 36833 ft 537 kts 92°
2026-05-06 01:53 41.36021 -81.30636 36851 ft 536 kts 92°
2026-05-06 01:53 41.35633 -81.20728 36836 ft 535 kts 91°
2026-05-06 01:54 41.35295 -81.10851 36831 ft 534 kts 91°
2026-05-06 01:54 41.34967 -81.00986 36823 ft 533 kts 91°
2026-05-06 01:55 41.34629 -80.91130 36813 ft 534 kts 91°
2026-05-06 01:55 41.34277 -80.81273 36849 ft 533 kts 91°
2026-05-06 01:56 41.33915 -80.71411 36871 ft 532 kts 91°
2026-05-06 01:56 41.33546 -80.61569 36808 ft 532 kts 91°
2026-05-06 01:57 41.33169 -80.51749 36786 ft 531 kts 91°
2026-05-06 01:57 41.32784 -80.41949 36804 ft 531 kts 91°
2026-05-06 01:58 41.32392 -80.32167 36823 ft 529 kts 92°
2026-05-06 01:58 41.31992 -80.22402 36844 ft 528 kts 92°
2026-05-06 01:59 41.31585 -80.12660 36830 ft 527 kts 92°
2026-05-06 01:59 41.31171 -80.02950 36838 ft 525 kts 92°
2026-05-06 02:00 41.30753 -79.93325 36852 ft 524 kts 92°
2026-05-06 02:00 41.30325 -79.83660 36848 ft 523 kts 92°
2026-05-06 02:01 41.29890 -79.74017 36849 ft 521 kts 92°
2026-05-06 02:01 41.29448 -79.64401 36815 ft 521 kts 92°
2026-05-06 02:02 41.28998 -79.54805 36812 ft 520 kts 92°
2026-05-06 02:02 41.28541 -79.45217 36821 ft 519 kts 92°
2026-05-06 02:03 41.28077 -79.35648 36817 ft 518 kts 92°
2026-05-06 02:03 41.27605 -79.26085 36819 ft 519 kts 92°
2026-05-06 02:04 41.27125 -79.16513 36828 ft 519 kts 93°
2026-05-06 02:04 41.26637 -79.06944 36833 ft 519 kts 93°
2026-05-06 02:05 41.26141 -78.97375 36847 ft 518 kts 93°
2026-05-06 02:05 41.25638 -78.87820 36831 ft 519 kts 93°
2026-05-06 02:06 41.25126 -78.78264 36850 ft 518 kts 93°
2026-05-06 02:06 41.24608 -78.68711 36811 ft 519 kts 93°
2026-05-06 02:07 41.24081 -78.59164 36810 ft 517 kts 93°
2026-05-06 02:07 41.23547 -78.49632 36636 ft 518 kts 94°
2026-05-06 02:08 41.23278 -78.44872 36308 ft 516 kts 94°
2026-05-06 02:08 41.23007 -78.40118 36077 ft 515 kts 94°
2026-05-06 02:08 41.22739 -78.35452 35523 ft 514 kts 94°
2026-05-06 02:08 41.22464 -78.30709 34871 ft 516 kts 94°
2026-05-06 02:09 41.22183 -78.25904 34293 ft 515 kts 94°
2026-05-06 02:09 41.21912 -78.21272 34202 ft 503 kts 94°
2026-05-06 02:09 41.21641 -78.16682 33889 ft 496 kts 94°
2026-05-06 02:09 41.21329 -78.12158 33640 ft 488 kts 96°
2026-05-06 02:10 41.20852 -78.07648 33204 ft 501 kts 99°
2026-05-06 02:10 41.20262 -78.03021 32832 ft 514 kts 100°
2026-05-06 02:10 41.19630 -77.98347 32441 ft 514 kts 101°
2026-05-06 02:10 41.18997 -77.93686 32059 ft 511 kts 100°
2026-05-06 02:11 41.18382 -77.89050 31659 ft 508 kts 100°
2026-05-06 02:11 41.17786 -77.84456 31290 ft 503 kts 100°
2026-05-06 02:11 41.17205 -77.79896 30916 ft 499 kts 100°
2026-05-06 02:11 41.16631 -77.75366 30558 ft 495 kts 99°
2026-05-06 02:12 41.16066 -77.70877 30199 ft 492 kts 100°
2026-05-06 02:12 41.15503 -77.66418 29828 ft 488 kts 100°
2026-05-06 02:12 41.14941 -77.61992 29414 ft 485 kts 100°
2026-05-06 02:12 41.14380 -77.57597 29022 ft 481 kts 99°
2026-05-06 02:13 41.13821 -77.53238 28689 ft 477 kts 99°
2026-05-06 02:13 41.13267 -77.48925 28306 ft 473 kts 100°
2026-05-06 02:13 41.12715 -77.44643 27996 ft 468 kts 100°
2026-05-06 02:13 41.12166 -77.40401 27626 ft 465 kts 100°
2026-05-06 02:14 41.11618 -77.36184 27272 ft 462 kts 100°
2026-05-06 02:14 41.11073 -77.32001 26936 ft 459 kts 100°
2026-05-06 02:14 41.10530 -77.27848 26594 ft 456 kts 100°
2026-05-06 02:14 41.09989 -77.23719 26239 ft 453 kts 100°
2026-05-06 02:15 41.09454 -77.19629 25927 ft 449 kts 101°
2026-05-06 02:15 41.08919 -77.15566 25587 ft 446 kts 101°
2026-05-06 02:15 41.08385 -77.11534 25260 ft 443 kts 101°
2026-05-06 02:15 41.07855 -77.07533 24943 ft 440 kts 101°
2026-05-06 02:16 41.07325 -77.03552 24620 ft 437 kts 101°
2026-05-06 02:16 41.06798 -76.99595 24298 ft 435 kts 101°
2026-05-06 02:16 41.06274 -76.95666 23982 ft 432 kts 101°
2026-05-06 02:16 41.05757 -76.91805 23669 ft 430 kts 101°
2026-05-06 02:17 41.05234 -76.87915 23330 ft 428 kts 101°
2026-05-06 02:17 41.04713 -76.84041 22973 ft 426 kts 102°
2026-05-06 02:17 41.04194 -76.80193 22644 ft 423 kts 102°
2026-05-06 02:17 41.03677 -76.76369 22330 ft 420 kts 102°
2026-05-06 02:18 41.03163 -76.72575 22013 ft 418 kts 102°
2026-05-06 02:18 41.02649 -76.68799 21696 ft 415 kts 102°
2026-05-06 02:18 41.02097 -76.65060 21389 ft 413 kts 106°
2026-05-06 02:18 41.01313 -76.61416 21083 ft 409 kts 111°
2026-05-06 02:19 41.00420 -76.57855 20829 ft 406 kts 112°
2026-05-06 02:19 40.99506 -76.54316 20485 ft 407 kts 112°
2026-05-06 02:19 40.98599 -76.50757 20195 ft 408 kts 111°
2026-05-06 02:19 40.97709 -76.47185 19894 ft 409 kts 111°
2026-05-06 02:20 40.95978 -76.40067 19292 ft 404 kts 110°
2026-05-06 02:20 40.95125 -76.36535 18982 ft 402 kts 111°
2026-05-06 02:20 40.94279 -76.33030 18694 ft 399 kts 111°
2026-05-06 02:21 40.93435 -76.29542 18407 ft 397 kts 111°
2026-05-06 02:21 40.92593 -76.26073 18107 ft 396 kts 111°
2026-05-06 02:21 40.91750 -76.22607 17766 ft 395 kts 111°
2026-05-06 02:21 40.90888 -76.19080 17411 ft 417 kts 111°
2026-05-06 02:22 40.89959 -76.15303 17054 ft 446 kts 111°
2026-05-06 02:22 40.88987 -76.11344 16668 ft 457 kts 110°
2026-05-06 02:22 40.88011 -76.07346 16249 ft 456 kts 111°
2026-05-06 02:22 40.87043 -76.03377 15848 ft 451 kts 111°
2026-05-06 02:23 40.86084 -75.99453 15489 ft 448 kts 111°
2026-05-06 02:23 40.85126 -75.95551 15097 ft 445 kts 111°
2026-05-06 02:23 40.84172 -75.91673 14671 ft 444 kts 111°
2026-05-06 02:23 40.83217 -75.87806 14285 ft 443 kts 111°
2026-05-06 02:24 40.82262 -75.83941 13905 ft 443 kts 111°
2026-05-06 02:24 40.81305 -75.80075 13495 ft 443 kts 111°
2026-05-06 02:24 40.80349 -75.76221 13064 ft 439 kts 111°
2026-05-06 02:24 40.79412 -75.72440 12797 ft 429 kts 112°
2026-05-06 02:25 40.78481 -75.68702 12726 ft 429 kts 112°
2026-05-06 02:25 40.77547 -75.64953 12539 ft 432 kts 112°
2026-05-06 02:25 40.76607 -75.61192 12411 ft 432 kts 112°
2026-05-06 02:25 40.75668 -75.57439 12247 ft 431 kts 112°
2026-05-06 02:26 40.74729 -75.53690 12099 ft 430 kts 112°
2026-05-06 02:26 40.73794 -75.49956 11968 ft 428 kts 112°
2026-05-06 02:26 40.72873 -75.46291 11814 ft 426 kts 112°
2026-05-06 02:26 40.71823 -75.42683 11657 ft 415 kts 118°
2026-05-06 02:27 40.70653 -75.39306 11502 ft 393 kts 120°
2026-05-06 02:27 40.69499 -75.36149 11373 ft 372 kts 121°
2026-05-06 02:27 40.68385 -75.33121 11244 ft 355 kts 121°
2026-05-06 02:27 40.67339 -75.30255 11121 ft 339 kts 121°
2026-05-06 02:28 40.66348 -75.27512 11012 ft 326 kts 122°
2026-05-06 02:28 40.65388 -75.24842 10900 ft 319 kts 122°
2026-05-06 02:28 40.64441 -75.22203 10813 ft 321 kts 122°
2026-05-06 02:28 40.63479 -75.19523 10707 ft 326 kts 122°
2026-05-06 02:29 40.62513 -75.16821 10618 ft 326 kts 121°
2026-05-06 02:29 40.61552 -75.14125 10486 ft 324 kts 121°
2026-05-06 02:29 40.60600 -75.11453 10377 ft 322 kts 122°
2026-05-06 02:29 40.59666 -75.08834 10283 ft 320 kts 122°
2026-05-06 02:30 40.58708 -75.06148 10170 ft 320 kts 122°
2026-05-06 02:30 40.57773 -75.03534 10043 ft 320 kts 122°
2026-05-06 02:30 40.56829 -75.00889 9947 ft 320 kts 121°
2026-05-06 02:30 40.55965 -74.98166 9802 ft 324 kts 118°
2026-05-06 02:31 40.55151 -74.95396 9670 ft 325 kts 117°
2026-05-06 02:31 40.54342 -74.92616 9531 ft 326 kts 117°
2026-05-06 02:31 40.53529 -74.89838 9391 ft 325 kts 117°
2026-05-06 02:31 40.52712 -74.87070 9265 ft 324 kts 117°
2026-05-06 02:32 40.51894 -74.84319 9114 ft 322 kts 118°
2026-05-06 02:32 40.51078 -74.81585 8995 ft 320 kts 118°
2026-05-06 02:32 40.50265 -74.78873 8872 ft 318 kts 118°
2026-05-06 02:32 40.49455 -74.76177 8723 ft 316 kts 118°
2026-05-06 02:33 40.48650 -74.73497 8613 ft 314 kts 118°
2026-05-06 02:33 40.48118 -74.71730 8534 ft 313 kts 118°
2026-05-06 02:34 40.45728 -74.63801 8156 ft 310 kts 118°
2026-05-06 02:34 40.44936 -74.61178 8027 ft 308 kts 118°
2026-05-06 02:34 40.44149 -74.58571 7913 ft 307 kts 118°
2026-05-06 02:34 40.43372 -74.55967 7783 ft 307 kts 115°
2026-05-06 02:35 40.43122 -74.53153 7592 ft 319 kts 85°
2026-05-06 02:35 40.43903 -74.49516 7540 ft 318 kts 72°
2026-05-06 02:35 40.44660 -74.46771 7358 ft 319 kts 71°
2026-05-06 02:35 40.45427 -74.44055 7248 ft 317 kts 71°
2026-05-06 02:36 40.46185 -74.41346 7109 ft 316 kts 72°
2026-05-06 02:36 40.46933 -74.38635 6986 ft 315 kts 72°
2026-05-06 02:36 40.47672 -74.35928 6847 ft 314 kts 72°
2026-05-06 02:36 40.48401 -74.33238 6735 ft 312 kts 73°
2026-05-06 02:37 40.48880 -74.31462 6659 ft 311 kts 73°
2026-05-06 02:37 40.49600 -74.28778 6546 ft 313 kts 73°
2026-05-06 02:37 40.50570 -74.25155 6356 ft 314 kts 73°
2026-05-06 02:37 40.51048 -74.23368 6280 ft 312 kts 73°
2026-05-06 02:38 40.51761 -74.20703 6127 ft 306 kts 73°
2026-05-06 02:38 40.52459 -74.18094 6012 ft 301 kts 73°
2026-05-06 02:38 40.53150 -74.15498 5909 ft 300 kts 73°
2026-05-06 02:38 40.53838 -74.12910 5784 ft 300 kts 73°
2026-05-06 02:39 40.54527 -74.10322 5649 ft 300 kts 73°
2026-05-06 02:39 40.55229 -74.07745 5527 ft 300 kts 69°
2026-05-06 02:39 40.56458 -74.05531 5382 ft 303 kts 39°
2026-05-06 02:39 40.58146 -74.03946 5371 ft 298 kts 31°
2026-05-06 02:40 40.59920 -74.02484 5186 ft 302 kts 31°
2026-05-06 02:40 40.61684 -74.01033 5191 ft 297 kts 31°
2026-05-06 02:40 40.63422 -73.99580 5167 ft 293 kts 32°
2026-05-06 02:40 40.64837 -73.97744 5105 ft 282 kts 60°
2026-05-06 02:41 40.65629 -73.95438 5071 ft 274 kts 72°
2026-05-06 02:41 40.66293 -73.93065 4946 ft 277 kts 73°
2026-05-06 02:41 40.66924 -73.90729 4813 ft 271 kts 73°
2026-05-06 02:41 40.67553 -73.88385 4695 ft 266 kts 73°
2026-05-06 02:42 40.68169 -73.86095 4552 ft 264 kts 73°
2026-05-06 02:42 40.68780 -73.83821 4434 ft 263 kts 73°
2026-05-06 02:42 40.69385 -73.81573 4232 ft 265 kts 71°
2026-05-06 02:42 40.70371 -73.79514 3925 ft 268 kts 44°
2026-05-06 02:43 40.71814 -73.78036 3754 ft 260 kts 32°
2026-05-06 02:43 40.73347 -73.76770 3461 ft 260 kts 31°
2026-05-06 02:43 40.74883 -73.75534 3235 ft 258 kts 31°
2026-05-06 02:43 40.76404 -73.74320 3008 ft 252 kts 31°
2026-05-06 02:44 40.77912 -73.73126 2991 ft 251 kts 30°
2026-05-06 02:44 40.79401 -73.71938 2966 ft 249 kts 30°
2026-05-06 02:44 40.80878 -73.70764 2995 ft 248 kts 30°
2026-05-06 02:44 40.82352 -73.69583 3015 ft 250 kts 30°
2026-05-06 02:45 40.83839 -73.68392 2982 ft 250 kts 30°
2026-05-06 02:45 40.85319 -73.67202 2986 ft 249 kts 30°
2026-05-06 02:45 40.86799 -73.66023 2981 ft 248 kts 30°
2026-05-06 02:45 40.88274 -73.64847 2956 ft 248 kts 30°
2026-05-06 02:46 40.89790 -73.63818 2934 ft 242 kts 12°
2026-05-06 02:46 40.91399 -73.63812 2983 ft 226 kts 336°
2026-05-06 02:46 40.92675 -73.64859 2982 ft 212 kts 306°
2026-05-06 02:46 40.93675 -73.66300 2993 ft 216 kts 305°
2026-05-06 02:47 40.94672 -73.67794 2966 ft 215 kts 304°
2026-05-06 02:47 40.95644 -73.69276 2961 ft 211 kts 301°
2026-05-06 02:47 40.96122 -73.70947 2945 ft 183 kts 259°
2026-05-06 02:47 40.95562 -73.72289 2977 ft 167 kts 216°
2026-05-06 02:48 40.94585 -73.73192 2974 ft 174 kts 217°
2026-05-06 02:48 40.93638 -73.74153 2962 ft 169 kts 218°
2026-05-06 02:48 40.92736 -73.75116 2957 ft 164 kts 218°
2026-05-06 02:48 40.91832 -73.76019 2948 ft 163 kts 215°
2026-05-06 02:49 40.90868 -73.76873 2808 ft 171 kts 213°
2026-05-06 02:49 40.89859 -73.77720 2574 ft 167 kts 212°
2026-05-06 02:49 40.88896 -73.78520 2358 ft 162 kts 211°
2026-05-06 02:49 40.87949 -73.79298 2142 ft 159 kts 212°
2026-05-06 02:50 40.87040 -73.80051 1936 ft 151 kts 211°
2026-05-06 02:50 40.86195 -73.80749 1788 ft 134 kts 211°
2026-05-06 02:50 40.85413 -73.81394 1581 ft 131 kts 212°
2026-05-06 02:50 40.84615 -73.82055 1387 ft 138 kts 210°
2026-05-06 02:51 40.83806 -73.82720 1196 ft 135 kts 209°
2026-05-06 02:51 40.83018 -73.83372 1014 ft 131 kts 209°
2026-05-06 02:51 40.82232 -73.84020 862 ft 136 kts 209°
2026-05-06 02:51 40.81400 -73.84708 666 ft 143 kts 208°
2026-05-06 02:52 40.80579 -73.85385 494 ft 135 kts 207°
2026-05-06 02:52 40.79750 -73.86068 320 ft 147 kts 211°
2026-05-06 02:52 40.78899 -73.86776 135 ft 141 kts 212°
2026-05-06 02:52 40.78088 -73.87448 11 ft 133 kts 212°
2026-05-06 02:53 40.77526 -73.87911 22 ft 49 kts 212°
2026-05-06 02:53 40.77321 -73.87999 19 ft 0 kts 176°
2026-05-06 02:53 40.77318 -73.87999 19 ft 0 kts 175°
2026-05-06 02:54 40.77307 -73.87958 19 ft 8 kts 72°
2026-05-06 02:55 40.77375 -73.87885 20 ft 16 kts 32°
2026-05-06 02:55 40.77475 -73.87803 20 ft 17 kts 32°
2026-05-06 02:55 40.77573 -73.87723 20 ft 16 kts 32°
2026-05-06 02:55 40.77628 -73.87600 20 ft 16 kts 46°
2026-05-06 02:56 40.77715 -73.87518 19 ft 16 kts 38°
2026-05-06 02:56 40.77768 -73.87384 14 ft 17 kts 78°
2026-05-06 02:56 40.77754 -73.87235 16 ft 16 kts 116°
2026-05-06 02:56 40.77698 -73.87109 14 ft 16 kts 123°
2026-05-06 02:57 40.77640 -73.86989 13 ft 15 kts 122°
2026-05-06 02:57 40.77585 -73.86874 12 ft 14 kts 122°
2026-05-06 02:57 40.77529 -73.86768 12 ft 14 kts 130°
2026-05-06 02:57 40.77475 -73.86666 11 ft 13 kts 122°
2026-05-06 02:58 40.77426 -73.86566 12 ft 13 kts 130°
2026-05-06 02:58 40.77351 -73.86587 18 ft 13 kts 223°
2026-05-06 02:58 40.77286 -73.86662 19 ft 12 kts 224°
2026-05-06 02:58 40.77252 -73.86708 20 ft 1 kts 240°
2026-05-06 02:59 40.77246 -73.86722 19 ft 3 kts 240°
2026-05-06 02:59 40.77255 -73.86767 19 ft 8 kts 317°
2026-05-06 02:59 40.77274 -73.86774 19 ft 0 kts 353°